Weather History for Liberia, Costa Rica

Change the Weather History Date:

Wednesday, November 30, 2011

  Actual Average Record
Temperature  
Mean Temperature 76 °F -  
Max Temperature 86 °F 87 °F 91 °F (2000)
Min Temperature 66 °F 72 °F 68 °F (1996)
Cooling Degree Days 11    
Growing Degree Days 26 (Base 50)    
Moisture  
Dew Point 64 °F    
Average Humidity 54    
Maximum Humidity 69    
Minimum Humidity 36    
Precipitation  
Precipitation 0.00 in - - ()
Sea Level Pressure  
Sea Level Pressure 29.85 in    
Wind  
Wind Speed 11 mph ()    
Max Wind Speed 22 mph    
Max Gust Speed -    
Visibility 7.7 miles    
Events      
Averages and records for this station are not official NWS values.
T = Trace of Precipitation, MM = Missing Value Source: Averaged Metar Reports

Daily Weather History Graph

Daily Weather History Graph

Search for Another Location

Airport:

Trip Planner

Search our weather history database for the weather conditions in past years. The results will help you decide how hot, cold, wet, or windy it might be!

Date:

Astronomy

Nov. 30, 2011 Rise Set
Actual Time 5:44 AM CST 5:17 PM CST
Civil Twilight 5:21 AM CST 5:40 PM CST
Nautical Twilight 4:55 AM CST 6:06 PM CST
Astronomical Twilight 4:29 AM CST 6:32 PM CST
Moon 10:31 AM CST (11/30) 10:38 PM CST (11/30)
Length of Visible Light 12h 18m
Length of Day
11h 33m
Waxing Crescent, 34% of the Moon is Illuminated
Nov 30
Waxing Crescent
Dec 2
First Quarter
Dec 10
Full
Dec 17
Last Quarter
Dec 24
New

Hourly Weather History & Observations

Time (CST) Temp. Heat Index Dew Point Humidity Pressure Visibility Wind Dir Wind Speed Gust Speed Precip Events Conditions
6:00 AM 72 °F - 62 °F 63% 29.82 in 12 mi ENE 5.8 mph - -   Scattered Clouds
6:00 AM 73.4 °F - 62.6 °F 69% 29.85 in 6.2 mi ENE 5.8 mph - N/A   Partly Cloudy
7:00 AM 77.0 °F - 64.4 °F 65% 29.86 in 6.2 mi North 3.5 mph - N/A   Partly Cloudy
8:00 AM 80.6 °F 81.8 °F 62.6 °F 54% 29.90 in 6.2 mi NE 5.8 mph - N/A   Partly Cloudy
9:00 AM 82 °F - 63 °F 42% 29.87 in 12 mi ENE 17.3 mph - -   Scattered Clouds
9:00 AM 82.4 °F 83.4 °F 62.6 °F 51% 29.90 in 6.2 mi ENE 17.3 mph - N/A   Partly Cloudy
10:00 AM 82.4 °F 83.4 °F 62.6 °F 51% 29.89 in 6.2 mi ENE 21.9 mph - N/A   Partly Cloudy
11:00 AM 84.2 °F 85.0 °F 62.6 °F 48% 29.88 in 6.2 mi ENE 20.7 mph - N/A   Unknown
12:00 PM 86 °F - 63 °F 36% 29.84 in 12 mi ENE 19.6 mph - -  
12:00 PM 86.0 °F 86.6 °F 62.6 °F 45% 29.85 in 6.2 mi ENE 19.6 mph - N/A   Unknown
1:00 PM 86.0 °F 87.3 °F 64.4 °F 48% 29.83 in 6.2 mi ENE 20.7 mph - N/A   Unknown
2:00 PM 84.2 °F 85.6 °F 64.4 °F 51% 29.81 in 6.2 mi ENE 16.1 mph - N/A   Unknown
3:00 PM 84 °F - 64 °F 42% 29.78 in 12 mi ENE 15.0 mph - -  
3:00 PM 84.2 °F 85.6 °F 64.4 °F 51% 29.81 in 6.2 mi ENE 15.0 mph - N/A   Unknown
4:00 PM 82.4 °F 83.9 °F 64.4 °F 54% 29.81 in 6.2 mi ENE 16.1 mph - N/A   Unknown
5:00 PM 80.6 °F 82.3 °F 64.4 °F 58% 29.82 in 6.2 mi East 9.2 mph - N/A   Unknown
6:00 PM 77.0 °F - 64.4 °F 65% 29.83 in - East 13.8 mph - N/A   Clear
7:00 PM 77.0 °F - 64.4 °F 65% 29.84 in - East 16.1 mph - N/A   Clear
8:00 PM 78.8 °F - 64.4 °F 61% 29.88 in - ENE 16.1 mph - N/A   Clear